• In Austria
  • List of Countries
  • For 7 days
  • Water Temperature
  • Satellite Maps
  • Weather Map
  • News
  • Weather Widgets
  • user-avatar
    Login

    Hourly Weather Ransko

    Today, 19 September, Wednesday

    Time Temperature Precipitation Wind Pressure Humidity
    00:00 +20°C° 0 mm 2 mps 756 mmHg 69%
    01:00 +19°C° 0 mm 2 mps 756 mmHg 72%
    02:00 +19°C° 0 mm 2 mps 757 mmHg 74%
    03:00 +19°C° 0 mm 2 mps 757 mmHg 75%
    04:00 +19°C° 0 mm 2 mps 757 mmHg 77%
    05:00 +19°C° 0 mm 2 mps 757 mmHg 76%
    06:00 +19°C° 0 mm 2 mps 757 mmHg 76%
    07:00 +19°C° 0 mm 2 mps 758 mmHg 74%
    08:00 +21°C° 0 mm 2 mps 758 mmHg 67%
    09:00 +24°C° 0 mm 2 mps 758 mmHg 59%
    10:00 +26°C° 0 mm 2 mps 759 mmHg 52%
    11:00 +27°C° 0 mm 2 mps 759 mmHg 48%
    12:00 +28°C° 0 mm 2 mps 759 mmHg 43%
    13:00 +29°C° 0 mm 2 mps 759 mmHg 39%
    14:00 +29°C° 0 mm 2 mps 758 mmHg 40%
    15:00 +29°C° 0 mm 2 mps 758 mmHg 40%
    16:00 +29°C° 0 mm 2 mps 758 mmHg 41%
    17:00 +27°C° 0 mm 2 mps 758 mmHg 46%
    18:00 +26°C° 0 mm 1 mps 758 mmHg 52%
    19:00 +24°C° 0 mm 1 mps 758 mmHg 57%
    20:00 +23°C° 0 mm 1 mps 759 mmHg 59%
    21:00 +23°C° 0 mm 2 mps 759 mmHg 60%
    22:00 +23°C° 0 mm 2 mps 759 mmHg 62%
    23:00 +21°C° 0 mm 2 mps 759 mmHg 64%

    Tomorrow, 20 September, Thursday

    Time Temperature Precipitation Wind Pressure Humidity
    00:00 +21°C° 0 mm 2 mps 759 mmHg 67%
    01:00 +21°C° 0 mm 2 mps 759 mmHg 69%
    02:00 +20°C° 0 mm 2 mps 759 mmHg 71%
    03:00 +20°C° 0 mm 2 mps 759 mmHg 73%
    04:00 +19°C° 0 mm 2 mps 759 mmHg 75%
    05:00 +20°C° 0 mm 2 mps 759 mmHg 75%
    06:00 +20°C° 0 mm 2 mps 759 mmHg 74%
    07:00 +20°C° 0 mm 2 mps 759 mmHg 74%
    08:00 +23°C° 0 mm 2 mps 759 mmHg 67%
    09:00 +25°C° 0 mm 2 mps 759 mmHg 61%
    10:00 +27°C° 0 mm 2 mps 759 mmHg 54%
    11:00 +28°C° 0 mm 3 mps 759 mmHg 50%
    12:00 +29°C° 0 mm 3 mps 759 mmHg 47%
    13:00 +29°C° 0 mm 3 mps 759 mmHg 43%
    14:00 +29°C° 0 mm 3 mps 758 mmHg 43%
    15:00 +29°C° 0 mm 3 mps 758 mmHg 43%
    16:00 +29°C° 0 mm 3 mps 758 mmHg 42%
    17:00 +28°C° 0 mm 2 mps 758 mmHg 48%
    18:00 +26°C° 0 mm 2 mps 758 mmHg 53%
    19:00 +24°C° 0 mm 1 mps 757 mmHg 58%
    20:00 +24°C° 0 mm 1 mps 757 mmHg 60%
    21:00 +23°C° 0 mm 2 mps 757 mmHg 62%
    22:00 +23°C° 0 mm 2 mps 757 mmHg 64%
    23:00 +23°C° 0 mm 2 mps 757 mmHg 64%

    Day after tomorrow, 21 September, Friday

    Time Temperature Precipitation Wind Pressure Humidity
    00:00 +21°C° 0 mm 3 mps 756 mmHg 65%
    01:00 +21°C° 0 mm 3 mps 756 mmHg 66%
    02:00 +21°C° 0 mm 3 mps 756 mmHg 66%
    03:00 +20°C° 0 mm 3 mps 755 mmHg 66%
    04:00 +20°C° 0 mm 3 mps 755 mmHg 66%
    05:00 +20°C° 0 mm 3 mps 755 mmHg 66%
    06:00 +20°C° 0 mm 3 mps 754 mmHg 66%
    07:00 +21°C° 0 mm 4 mps 754 mmHg 66%
    08:00 +23°C° 0 mm 4 mps 754 mmHg 60%
    09:00 +26°C° 0 mm 5 mps 753 mmHg 53%
    10:00 +28°C° 0 mm 6 mps 753 mmHg 47%
    11:00 +29°C° 0 mm 6 mps 752 mmHg 42%
    12:00 +30°C° 0 mm 6 mps 752 mmHg 38%
    13:00 +32°C° 0 mm 6 mps 751 mmHg 34%
    14:00 +30°C° 0 mm 6 mps 751 mmHg 35%
    15:00 +30°C° 0 mm 5 mps 750 mmHg 37%
    16:00 +30°C° 0 mm 5 mps 750 mmHg 39%
    17:00 +27°C° 0.4 mm 5 mps 751 mmHg 51%
    18:00 +23°C° 0.4 mm 5 mps 751 mmHg 64%
    19:00 +20°C° 0.4 mm 6 mps 752 mmHg 76%
    20:00 +19°C° 0.4 mm 5 mps 753 mmHg 74%
    21:00 +16°C° 0.4 mm 5 mps 754 mmHg 72%
    22:00 +15°C° 0.4 mm 4 mps 755 mmHg 69%
    23:00 +15°C° 0.1 mm 4 mps 755 mmHg 67%

    22 September, Saturday

    Time Temperature Precipitation Wind Pressure Humidity
    00:00 +14°C° 0.1 mm 4 mps 756 mmHg 66%
    01:00 +14°C° 0.1 mm 4 mps 756 mmHg 64%
    02:00 +14°C° 0 mm 4 mps 756 mmHg 63%
    03:00 +13°C° 0 mm 4 mps 757 mmHg 62%
    04:00 +13°C° 0 mm 3 mps 757 mmHg 61%
    05:00 +13°C° 0 mm 4 mps 757 mmHg 61%
    06:00 +13°C° 0 mm 4 mps 757 mmHg 61%
    07:00 +13°C° 0 mm 4 mps 757 mmHg 61%
    08:00 +14°C° 0 mm 5 mps 758 mmHg 57%
    09:00 +15°C° 0 mm 5 mps 758 mmHg 53%
    10:00 +16°C° 0 mm 6 mps 758 mmHg 48%
    11:00 +16°C° 0 mm 6 mps 758 mmHg 45%
    12:00 +17°C° 0 mm 6 mps 757 mmHg 43%
    13:00 +19°C° 0 mm 6 mps 757 mmHg 40%
    14:00 +17°C° 0 mm 6 mps 757 mmHg 40%
    15:00 +17°C° 0 mm 5 mps 757 mmHg 41%
    16:00 +17°C° 0 mm 5 mps 757 mmHg 41%
    17:00 +17°C° 0 mm 4 mps 757 mmHg 45%
    18:00 +15°C° 0 mm 4 mps 758 mmHg 49%
    19:00 +14°C° 0 mm 3 mps 758 mmHg 52%
    20:00 +13°C° 0 mm 3 mps 758 mmHg 56%
    21:00 +12°C° 0 mm 3 mps 759 mmHg 59%
    22:00 +12°C° 0 mm 3 mps 759 mmHg 63%
    23:00 +11°C° 0 mm 3 mps 759 mmHg 64%

    23 September, Sunday

    Time Temperature Precipitation Wind Pressure Humidity
    00:00 +11°C° 0 mm 3 mps 759 mmHg 65%
    01:00 +10°C° 0 mm 3 mps 759 mmHg 66%
    02:00 +10°C° 0 mm 3 mps 759 mmHg 68%
    03:00 +9°C° 0 mm 3 mps 759 mmHg 71%
    04:00 +9°C° 0 mm 3 mps 759 mmHg 73%
    05:00 +9°C° 0 mm 3 mps 759 mmHg 73%
    06:00 +9°C° 0 mm 3 mps 759 mmHg 73%
    07:00 +9°C° 0 mm 3 mps 759 mmHg 73%
    08:00 +11°C° 0 mm 3 mps 759 mmHg 65%
    09:00 +13°C° 0 mm 3 mps 758 mmHg 56%
    10:00 +14°C° 0 mm 3 mps 758 mmHg 48%
    11:00 +16°C° 0 mm 3 mps 757 mmHg 45%
    12:00 +17°C° 0 mm 3 mps 756 mmHg 41%
    13:00 +18°C° 0 mm 4 mps 755 mmHg 38%
    14:00 +18°C° 0 mm 4 mps 754 mmHg 39%
    15:00 +18°C° 0 mm 4 mps 752 mmHg 41%
    16:00 +17°C° 0 mm 4 mps 751 mmHg 42%
    17:00 +16°C° 0.3 mm 5 mps 750 mmHg 48%
    18:00 +15°C° 0.3 mm 5 mps 749 mmHg 53%
    19:00 +15°C° 0.3 mm 6 mps 748 mmHg 58%
    20:00 +15°C° 1.1 mm 5 mps 747 mmHg 64%
    21:00 +14°C° 1.1 mm 5 mps 746 mmHg 71%
    22:00 +14°C° 1.1 mm 5 mps 745 mmHg 77%
    23:00 +14°C° 2.2 mm 5 mps 744 mmHg 80%

    24 September, Monday

    Time Temperature Precipitation Wind Pressure Humidity
    00:00 +14°C° 2.2 mm 5 mps 744 mmHg 82%
    01:00 +14°C° 2.2 mm 5 mps 744 mmHg 85%
    02:00 +14°C° 0.5 mm 5 mps 744 mmHg 84%
    03:00 +14°C° 0.5 mm 5 mps 743 mmHg 83%
    04:00 +13°C° 0.5 mm 5 mps 743 mmHg 82%
    05:00 +13°C° 0.2 mm 5 mps 743 mmHg 81%
    06:00 +12°C° 0.2 mm 5 mps 743 mmHg 80%
    07:00 +12°C° 0.2 mm 5 mps 743 mmHg 79%
    08:00 +13°C° 0 mm 6 mps 743 mmHg 74%
    09:00 +13°C° 0 mm 6 mps 743 mmHg 69%
    10:00 +14°C° 0 mm 7 mps 742 mmHg 63%
    11:00 +14°C° 0.1 mm 6 mps 743 mmHg 65%
    12:00 +14°C° 0.1 mm 6 mps 743 mmHg 67%
    13:00 +14°C° 0.1 mm 6 mps 743 mmHg 69%
    14:00 +12°C° 0.1 mm 7 mps 743 mmHg 70%
    15:00 +12°C° 0.1 mm 7 mps 744 mmHg 72%
    16:00 +11°C° 0.1 mm 8 mps 744 mmHg 74%
    17:00 +11°C° 0 mm 9 mps 745 mmHg 73%
    18:00 +10°C° 0 mm 9 mps 746 mmHg 72%
    19:00 +9°C° 0 mm 10 mps 746 mmHg 71%
    20:00 +9°C° 0.1 mm 10 mps 747 mmHg 72%
    21:00 +9°C° 0.1 mm 10 mps 748 mmHg 73%
    22:00 +9°C° 0.1 mm 10 mps 749 mmHg 74%
    23:00 +8°C° 0.4 mm 9 mps 750 mmHg 76%
    Show more